This is the latest recevied weather packets stored in our database for station/object KK7KRZ. If no packets are shown the sender has not sent any weather packets the latest 1 day(s).
| Time | Temp. | Humidity | Pressure | Rain* | Wind** | Luminosity | Snow |
|---|---|---|---|---|---|---|---|
| 1778035862 | 16.11° C | 79% | 1014.9 hPa | 0 mm | 0 m/s | 10 W/m² | - |
| 1778035559 | 16.11° C | 78% | 1015.1 hPa | 0 mm | 0 m/s | 11 W/m² | - |
| 1778035255 | 16.11° C | 78% | 1014.9 hPa | 0 mm | 0 m/s | 12 W/m² | - |
| 1778034951 | 16.67° C | 78% | 1014.7 hPa | 0 mm | 0 m/s | 13 W/m² | - |
| 1778034649 | 16.67° C | 78% | 1014.8 hPa | 0 mm | 0 m/s | 16 W/m² | - |
| 1778034346 | 16.67° C | 77% | 1014.9 hPa | 0 mm | 0 m/s | 19 W/m² | - |
| 1778034044 | 16.67° C | 77% | 1015 hPa | 0 mm | 0 m/s | 22 W/m² | - |
| 1778033741 | 16.67° C | 76% | 1015 hPa | 0 mm | 0 m/s | 21 W/m² | - |
| 1778033438 | 17.22° C | 75% | 1015 hPa | 0 mm | 0 m/s | 19 W/m² | - |
| 1778033136 | 17.22° C | 74% | 1014.6 hPa | 0 mm | 0 m/s | 20 W/m² | - |
| 1778032833 | 17.78° C | 73% | 1014.9 hPa | 0 mm | 0 m/s | 23 W/m² | - |
| 1778032530 | 17.78° C | 74% | 1014.9 hPa | 0 mm | 0.89 m/s, 358° | 26 W/m² | - |
| 1778032227 | 17.78° C | 73% | 1014.9 hPa | 0 mm | 0.45 m/s, 69° | 27 W/m² | - |
| 1778031925 | 17.78° C | 73% | 1014.9 hPa | 0 mm | 0 m/s | 30 W/m² | - |
| 1778031621 | 17.78° C | 73% | 1014.7 hPa | 0 mm | 0.45 m/s, 143° | 30 W/m² | - |
| 1778031319 | 17.78° C | 72% | 1014.8 hPa | 0 mm | 0.45 m/s, 126° | 35 W/m² | - |
| 1778031015 | 17.78° C | 73% | 1014.9 hPa | 0 mm | 0.45 m/s, 155° | 33 W/m² | - |
| 1778030711 | 17.78° C | 72% | 1014.8 hPa | 0 mm | 0 m/s | 34 W/m² | - |
| 1778030408 | 17.78° C | 71% | 1014.6 hPa | 0 mm | 0.89 m/s, 171° | 32 W/m² | - |
| 1778030106 | 17.78° C | 72% | 1014.8 hPa | 0 mm | 0 m/s | 35 W/m² | - |
| 1778029802 | 18.33° C | 70% | 1014.6 hPa | 0 mm | 0 m/s | 34 W/m² | - |
| 1778029501 | 17.78° C | 72% | 1014.7 hPa | 0 mm | 0.89 m/s, 359° | 40 W/m² | - |
| 1778029197 | 17.78° C | 72% | 1014.6 hPa | 0 mm | 0 m/s | 39 W/m² | - |
| 1778028895 | 17.78° C | 71% | 1014.7 hPa | 0 mm | 0.89 m/s, 174° | 46 W/m² | - |
| 1778028590 | 17.78° C | 71% | 1014.9 hPa | 0 mm | 0 m/s | 48 W/m² | - |
* Rain latest hour (hover to see other rain measurements)
** Current wind speed in m/s (hover to see current wind gust speed)